Flag for Syria Weather past 2 weeks in Damascus, Syria

Now
66 °F

Passing clouds.


Feels Like: 66 °F
Forecast: 50 / 75 °F
Wind: 14 mph from Southwest

Location: Damascus Int. Airport

Current Time: May 29, 2015 at 9:25:50 PM

Latest Report: May 29, 2015 at 9:00 PM


Visibility: N/A

Pressure: 29.86 "Hg

Humidity: 46%

Dew point: 45 °F

Location of DamascusLocation

Historic Weather in Damascus — Graph

°F

Damascus temperature yesterday

Maximum temperature yesterday: 97 °F (at 2:00 PM)
Minimum temperature yesterday: 68 °F (at 11:00 PM)
Average temperature yesterday: 85 °F

Past Weeks' High & Low Weather Summary

 TemperatureHumidityPressure
High99 °F (May 19, 3:00 PM)77% (May 15, 4:00 AM)30.24 "Hg (May 15, 4:00 AM)
Low50 °F (May 16, 6:00 AM)7% (May 19, 2:00 PM)29.74 "Hg (May 28, 4:00 PM)
Average76 °F31%29.96 "Hg
* Reported May 14 8:00 PM — May 29 8:00 PM, Damascus, Weather by CustomWeather, © 2015

Note: Actual official high and low records may vary slightly from our data, if they occured in-between our weather recording intervals... More about our weather records

Advertising

Damascus weather history for previous 24 hours

 ConditionsComfort  
Time TempWeatherWind HumidityBarometerVisibility
8:00 PM
Fri, May 29
70 °FPassing clouds.16 mph33%29.83 "HgN/A
7:00 PM72 °FPassing clouds.21 mph31%29.83 "HgN/A
6:00 PM75 °FPassing clouds.23 mph29%29.83 "HgN/A
5:00 PM77 °FScattered clouds.25 mph28%29.83 "HgN/A
4:00 PM79 °FScattered clouds.30 mph26%29.83 "HgN/A
3:00 PM79 °FScattered clouds.16 mph26%29.83 "HgN/A
2:00 PM81 °FScattered clouds.12 mph24%29.83 "HgN/A
1:00 PM79 °FScattered clouds.14 mph28%29.83 "HgN/A
12:00 PM77 °FScattered clouds.23 mph32%29.83 "HgN/A
11:00 AM75 °FScattered clouds.18 mph31%29.83 "HgN/A
10:00 AM72 °FPartly sunny.23 mph41%29.86 "HgN/A
9:00 AM70 °FScattered clouds.18 mph53%29.83 "HgN/A
8:00 AM68 °FScattered clouds.14 mph49%29.83 "HgN/A
7:00 AM66 °FScattered clouds.15 mph56%29.83 "HgN/A
6:00 AM61 °FPassing clouds.12 mph68%29.80 "HgN/A
5:00 AM61 °FClear.16 mph68%29.80 "Hg10 mi
4:00 AM61 °FClear.18 mph63%29.80 "Hg10 mi
3:00 AM63 °FClear.21 mph59%29.80 "Hg10 mi
2:00 AM63 °FClear.18 mph52%29.80 "Hg10 mi
1:00 AM64 °FClear.18 mph60%29.80 "Hg10 mi
12:00 AM64 °FClear.28 mph64%29.80 "Hg10 mi
11:00 PM
Thu, May 28
68 °FClear.28 mph64%29.80 "Hg10 mi
10:00 PM73 °FClear.18 mph38%29.80 "Hg10 mi
9:00 PM77 °FClear.23 mph28%29.77 "Hg10 mi
Weather by CustomWeather, © 2015

See weather overviewHow to use our weather pages